Waarnemingen

Advertentie
Mijn weer
Nancy/Essey, Frankrijk (7180): temperatuur & dauwpunt: 17.07.2017 08:00:00 - 23.07.2017 08:00:00 (CEST)Nancy/Essey, Frankrijk (7180): temperatuur 5cm: 17.07.2017 08:00:00 - 23.07.2017 08:00:00 (CEST)Nancy/Essey, Frankrijk (7180): temperatuur -20cm & temperatuur -100cm: 17.07.2017 08:00:00 - 23.07.2017 08:00:00 (CEST)Nancy/Essey, Frankrijk (7180): windsnelheid & windstoten: 17.07.2017 08:00:00 - 23.07.2017 08:00:00 (CEST)Nancy/Essey, Frankrijk (7180): windrichting: 17.07.2017 08:00:00 - 23.07.2017 08:00:00 (CEST)Nancy/Essey, Frankrijk (7180): luchtdruk: 17.07.2017 08:00:00 - 23.07.2017 08:00:00 (CEST)Nancy/Essey, Frankrijk (7180): zicht: 17.07.2017 08:00:00 - 23.07.2017 08:00:00 (CEST)Nancy/Essey, Frankrijk (7180): Zonneschijnduur: 17.07.2017 08:00:00 - 23.07.2017 08:00:00 (CEST)Nancy/Essey, Frankrijk (7180): neerslag: 17.07.2017 08:00:00 - 23.07.2017 08:00:00 (CEST)
Datum & Tijd tt [°C] td [°C] tt 5cm [°C] tt -20cm [°C] tt -100cm [°C] ff [km/u] ff [kn] fx [km/u] fx [kn] dd ppp [hPa] vv [km] sd [min] rr [mm]
23.07.2017 08:00:00 16,1 11,3 15,9 22,2 19,2 15 8 31 17 ZW 1017,7 58 35 0,0
23.07.2017 07:00:00 15,6 11,2 14,9 22,3 19,2 11 6 37 20 WZW 1017,5 59 22 0,0
23.07.2017 06:00:00 15,7 12,1 14,8 22,5 19,2 15 8 30 16 WZW 1017,0 60 0 0,0
23.07.2017 05:00:00 16,4 12,9 15,5 22,6 19,2 16 9 34 19 ZW 1016,4 60 0 0,0
23.07.2017 04:00:00 17,0 13,7 16,0 22,7 19,2 14 8 31 17 ZW 1015,8 60 0 0,0
23.07.2017 03:00:00 17,9 14,8 16,9 22,9 19,2 13 7 23 13 ZZW 1015,4 60 0 0,0
23.07.2017 02:00:00 17,9 15,5 16,4 23,0 19,2 10 6 17 9 Z 1015,1 60 0 0,0
23.07.2017 01:00:00 17,9 15,3 16,9 23,1 19,2 8 5 25 14 ZW 1014,6 60 0 0,0
23.07.2017 00:00:00 18,3 15,5 17,2 23,1 19,2 10 5 23 12 WZW 1014,5 60 0 0,0
22.07.2017 23:00:00 18,6 16,0 17,2 23,2 19,2 7 4 25 13 W 1014,4 60 0 0,2
22.07.2017 22:00:00 18,6 16,7 17,3 23,2 19,2 15 8 56 30 W 1014,3 60 0 1,6
22.07.2017 21:00:00 23,5 16,5 19,1 23,1 19,2 31 17 50 27 Z 1011,3 10 4 0,6
22.07.2017 20:00:00 26,2 14,3 26,3 23,0 19,1 14 8 34 18 ZZO 1010,7 18 32 0,0
22.07.2017 19:00:00 27,8 10,9 28,4 22,9 19,2 18 10 33 18 Z 1011,0 53 37 0,0
22.07.2017 18:00:00 27,8 13,7 27,9 22,7 19,2 13 7 29 16 Z 1011,3 60 29 0,0
22.07.2017 17:00:00 27,3 12,9 28,9 22,5 19,2 16 9 45 25 ZZW 1011,9 57 35 0,0
22.07.2017 16:00:00 27,7 12,9 28,3 22,3 19,2 16 9 34 19 ZW 1012,0 54 48 0,0
22.07.2017 15:00:00 26,9 13,3 27,1 22,2 19,2 18 10 40 21 Z 1012,4 59 46 0,0
22.07.2017 14:00:00 25,7 14,5 26,8 22,1 19,2 16 8 32 17 Z 1012,8 60 46 0,0
22.07.2017 13:00:00 24,1 14,8 24,4 21,9 19,1 11 6 22 12 ZW 1013,5 59 32 0,0
22.07.2017 12:00:00 22,9 15,5 23,5 21,9 19,1 9 5 22 12 Z 1013,8 60 1 0,0
22.07.2017 11:00:00 22,3 16,1 24,5 21,9 19,1 9 5 22 12 Z 1013,7 42 52 0,0
22.07.2017 10:00:00 20,7 16,1 20,7 21,9 19,1 11 6 18 10 Z 1013,8 57 7 0,0
22.07.2017 09:00:00 20,0 16,4 20,1 22,1 19,2 8 5 15 8 Z 1013,7 34 21 0,0
22.07.2017 08:00:00 19,2 17,2 19,6 22,2 19,2 7 4 19 10 Z 1013,3 43 31 0,0
22.07.2017 07:00:00 18,0 16,8 16,0 22,3 19,1 9 5 13 7 ZZO 1012,8 28 33 0,2
22.07.2017 06:00:00 17,3 16,5 16,3 22,4 19,1 7 4 12 7 ZO 1012,7 20 0 0,0
22.07.2017 05:00:00 17,7 16,7 16,4 22,5 19,1 8 4 14 7 Z 1012,5 38 0 0,0
22.07.2017 04:00:00 17,5 16,5 16,9 22,6 19,1 3 2 6 4 Z 1012,4 33 0 0,0
22.07.2017 03:00:00 17,5 16,5 16,7 22,6 19,1 3 2 14 8 ZO 1012,5 38 0 0,0
22.07.2017 02:00:00 17,7 16,6 16,8 22,8 19,1 7 4 13 7 OZO 1012,4 58 0 0,0
22.07.2017 01:00:00 18,1 16,8 17,1 22,9 19,1 8 5 19 11 O 1012,1 60 0 0,2
22.07.2017 00:00:00 18,3 16,5 17,6 22,9 19,1 5 3 10 6 ZO 1012,1 60 0 0,0
21.07.2017 23:00:00 18,3 16,8 17,5 22,9 19,1 3 1 21 12 ONO 1012,2 57 0 0,0
21.07.2017 22:00:00 18,8 17,1 17,9 22,9 19,1 14 8 39 21 Z 1011,5 52 0 1,2
21.07.2017 21:00:00 25,0 14,5 22,3 22,9 19,2 18 10 37 20 ZW 1010,2 19 0 0,0
21.07.2017 20:00:00 26,5 12,5 26,3 22,7 19,1 8 4 12 7 W 1009,8 60 2 0,0
21.07.2017 19:00:00 26,8 12,8 27,6 22,6 19,1 8 4 18 10 N 1009,6 60 6 0,0
21.07.2017 18:00:00 27,0 12,2 27,9 22,4 19,1 7 4 17 9 WNW 1009,7 60 14 0,0
21.07.2017 17:00:00 26,6 11,9 28,1 22,2 19,1 2 1 22 12 NO 1010,0 60 11 0,0
21.07.2017 16:00:00 27,6 13,2 28,9 22,0 19,1 6 3 18 10 ZZO 1010,7 59 46 0,0
21.07.2017 15:00:00 26,3 12,7 27,9 21,8 19,1 7 4 23 13 ONO 1011,4 60 39 0,0
21.07.2017 14:00:00 24,7 12,6 27,6 21,7 19,1 12 7 21 11 O 1012,1 60 19 0,0
21.07.2017 13:00:00 24,5 12,1 27,5 21,5 19,1 7 4 18 10 O 1012,7 60 31 0,0
21.07.2017 12:00:00 24,3 12,6 27,6 21,5 19,1 4 2 32 17 OZO 1013,2 38 41 0,0
21.07.2017 11:00:00 23,3 12,9 28,1 21,5 19,1 5 3 16 9 ZZO 1013,9 57 60 0,0
21.07.2017 10:00:00 21,6 13,2 25,2 21,5 19,1 4 2 10 5 ONO 1014,2 56 60 0,0
21.07.2017 09:00:00 19,3 13,2 21,9 21,7 19,1 3 1 8 4 NNO 1014,6 50 60 0,0
21.07.2017 08:00:00 17,4 13,1 16,2 21,8 19,1 3 1 5 3 NO 1014,8 41 60 0,0
21.07.2017 07:00:00 14,2 12,6 11,9 22,0 19,1 3 2 9 5 OZO 1015,1 29 40 0,0
21.07.2017 06:00:00 13,0 11,7 11,5 22,2 19,1 2 1 10 5 O 1015,4 60 0 0,0
21.07.2017 05:00:00 13,0 11,7 11,1 22,3 19,0 8 4 10 6 OZO 1015,4 60 0 0,0
21.07.2017 04:00:00 14,7 11,7 12,3 22,5 19,1 5 3 9 5 ZO 1015,3 60 0 0,0
21.07.2017 03:00:00 15,9 11,3 13,1 22,7 19,0 3 2 11 6 N 1015,5 60 0 0,0
21.07.2017 02:00:00 16,8 11,3 13,9 22,8 19,0 5 3 11 6 NW 1015,5 59 0 0,0
21.07.2017 01:00:00 17,4 11,4 14,6 22,9 19,0 3 1 8 4 W 1015,2 60 0 0,0
21.07.2017 00:00:00 17,5 12,8 15,8 23,0 19,0 4 2 13 7 OZO 1015,1 60 0 0,0
20.07.2017 23:00:00 20,2 11,4 17,9 23,1 19,0 4 2 17 9 WZW 1014,6 60 0 0,0
20.07.2017 22:00:00 21,3 11,0 19,4 23,1 19,0 8 4 27 14 W 1013,7 60 0 0,0
20.07.2017 21:00:00 22,8 11,5 21,9 23,1 19,0 13 7 35 19 W 1013,2 60 27 0,0
20.07.2017 20:00:00 23,8 12,1 23,7 23,1 19,0 14 8 31 17 W 1012,8 60 12 0,0
20.07.2017 19:00:00 24,3 11,6 24,6 23,0 19,0 19 10 44 24 WZW 1012,5 60 4 0,0
20.07.2017 18:00:00 25,1 12,0 25,9 22,9 19,0 23 12 - - WZW 1012,3 60 19 0,0
20.07.2017 17:00:00 25,7 13,5 26,2 22,7 19,0 22 12 49 26 WZW 1012,2 60 50 0,0
20.07.2017 16:00:00 25,9 13,7 27,0 22,5 19,0 23 12 48 26 WZW 1012,1 60 34 0,0
20.07.2017 15:00:00 25,8 14,3 26,9 22,4 18,9 22 12 46 25 WZW 1012,0 58 33 0,0
20.07.2017 14:00:00 25,5 15,2 23,9 22,3 18,9 23 12 41 22 ZW 1011,9 60 30 0,0
20.07.2017 13:00:00 25,1 16,3 25,6 22,3 18,9 20 11 39 21 ZZW 1011,7 54 48 0,0
20.07.2017 12:00:00 22,7 17,2 23,7 22,4 18,9 19 10 32 18 Z 1012,3 60 25 0,0
20.07.2017 11:00:00 21,0 18,2 19,2 22,5 18,9 9 5 20 11 Z 1012,8 53 5 0,0
20.07.2017 10:00:00 19,1 17,8 18,5 22,6 18,9 10 5 17 9 Z 1013,2 49 0 0,2
20.07.2017 09:00:00 18,5 17,5 17,6 22,9 18,9 9 5 21 11 ZZO 1013,2 47 0 1,9
20.07.2017 08:00:00 17,9 17,4 16,8 23,1 18,9 14 8 29 16 WZW 1012,6 0,5 0 17,3
20.07.2017 07:00:00 17,5 16,4 16,6 23,4 18,9 13 7 26 14 ZW 1012,2 0,6 0 13,8
20.07.2017 06:00:00 19,3 15,8 17,0 23,5 18,9 11 6 32 17 Z 1012,0 10 0 0,4
20.07.2017 05:00:00 20,1 15,1 19,5 23,6 18,9 14 7 27 15 Z 1012,0 60 0 0,0
20.07.2017 04:00:00 21,7 16,0 19,0 23,7 18,9 9 5 33 18 ZZW 1011,1 60 0 0,0
20.07.2017 03:00:00 23,6 15,4 22,3 23,8 18,9 13 7 41 22 WZW 1011,3 60 0 0,0
20.07.2017 02:00:00 25,6 12,8 22,7 23,9 18,9 16 9 28 15 ZZW 1010,8 60 0 0,0
20.07.2017 01:00:00 25,3 13,5 22,7 24,0 18,8 4 2 10 5 Z 1010,2 60 0 0,0
20.07.2017 00:00:00 25,9 13,4 24,2 24,1 18,9 8 4 17 9 ZZO 1010,1 60 0 0,0
19.07.2017 23:00:00 26,9 12,9 24,8 24,1 18,9 8 5 15 8 Z 1009,5 60 0 0,0
19.07.2017 22:00:00 28,4 12,7 26,9 24,1 18,8 10 5 21 11 ZZW 1010,0 60 0 0,0
19.07.2017 21:00:00 29,6 12,5 29,0 24,0 18,8 14 8 34 18 ZZW 1009,4 60 0 0,0
19.07.2017 20:00:00 30,7 12,1 30,8 23,9 18,8 23 12 39 21 Z 1008,9 55 12 0,0
19.07.2017 19:00:00 31,9 12,2 32,7 23,7 18,8 16 9 31 17 Z 1008,1 55 41 0,0
19.07.2017 18:00:00 33,4 11,3 37,6 23,5 18,8 14 8 40 21 ZW 1008,1 20 60 0,0
19.07.2017 17:00:00 33,6 10,9 38,7 23,2 18,8 21 11 40 22 Z 1008,9 60 60 0,0
19.07.2017 16:00:00 33,7 11,5 36,4 23,1 18,8 20 11 35 19 Z 1009,7 60 60 0,0
19.07.2017 15:00:00 32,5 10,5 33,1 22,8 18,8 19 10 35 19 ZZW 1010,5 51 10 0,0
19.07.2017 14:00:00 32,4 11,5 36,4 22,7 18,8 19 11 33 18 ZZW 1010,7 12 57 0,0
19.07.2017 13:00:00 31,5 12,3 34,0 22,6 18,8 15 8 34 19 ZZW 1011,1 48 49 0,0
19.07.2017 12:00:00 29,4 12,3 33,6 22,6 18,8 18 10 39 21 ZZW 1011,3 41 60 0,0
19.07.2017 11:00:00 28,2 12,5 30,6 22,6 18,8 19 10 31 17 Z 1011,3 52 37 0,0
19.07.2017 10:00:00 27,5 12,7 30,1 22,7 18,8 16 9 34 18 Z 1011,8 51 60 0,0
19.07.2017 09:00:00 25,5 12,0 27,3 22,8 18,8 16 9 32 18 Z 1012,1 56 60 0,0
19.07.2017 08:00:00 23,9 11,2 24,1 23,0 18,8 13 7 26 14 Z 1012,3 60 60 0,0
19.07.2017 07:00:00 23,1 10,8 21,7 23,1 18,8 12 6 34 19 Z 1012,0 50 25 0,0
19.07.2017 06:00:00 23,2 10,6 20,9 23,3 18,8 17 9 31 17 Z 1011,7 60 0 0,0
19.07.2017 05:00:00 23,3 11,4 20,1 23,4 18,8 10 5 23 12 Z 1011,8 60 0 0,0
19.07.2017 04:00:00 22,0 13,1 17,6 23,5 18,7 5 3 16 9 Z 1012,0 60 0 0,0
19.07.2017 03:00:00 20,0 15,6 16,8 23,7 18,8 4 2 10 5 NNW 1012,3 47 0 0,0
19.07.2017 02:00:00 20,2 15,0 17,6 23,8 18,8 6 4 7 4 OZO 1012,4 60 0 0,0
19.07.2017 01:00:00 22,6 15,2 19,6 23,9 18,8 4 2 10 6 O 1012,1 60 0 0,0
19.07.2017 00:00:00 24,3 15,2 21,7 24,0 18,7 8 4 12 6 O 1012,0 60 0 0,0
18.07.2017 23:00:00 25,2 15,2 22,2 24,0 18,7 3 2 13 7 Z 1012,1 55 0 0,0
18.07.2017 22:00:00 25,8 15,8 23,4 24,0 18,7 9 5 16 9 O 1012,1 55 0 0,0
18.07.2017 21:00:00 28,5 16,1 27,6 23,9 18,7 10 5 21 11 O 1011,7 60 16 0,0
18.07.2017 20:00:00 29,8 16,2 30,1 23,7 18,7 16 9 29 16 O 1011,7 60 18 0,0
18.07.2017 19:00:00 31,9 15,4 35,3 23,4 18,7 12 7 23 12 O 1011,4 60 55 0,0
18.07.2017 18:00:00 32,8 13,4 36,4 23,2 18,7 9 5 34 18 OZO 1011,8 58 60 0,0
18.07.2017 17:00:00 32,2 13,9 34,3 22,9 18,7 15 8 29 16 OZO 1012,4 60 51 0,0
18.07.2017 16:00:00 32,6 13,3 33,7 22,6 18,7 7 4 29 16 Z 1013,0 41 51 0,0
18.07.2017 15:00:00 32,0 13,7 35,7 22,3 18,7 15 8 39 21 O 1013,6 56 58 0,0
18.07.2017 14:00:00 30,8 14,4 37,5 22,1 18,7 11 6 27 15 Z 1014,4 48 60 0,0
18.07.2017 13:00:00 29,7 15,8 35,7 21,9 18,7 6 3 27 15 Z 1015,3 58 60 0,0
18.07.2017 12:00:00 28,3 15,9 30,2 21,8 18,7 5 3 22 12 ZO 1015,9 20 53 0,0
18.07.2017 11:00:00 26,7 16,6 29,9 21,8 18,7 4 2 16 9 O 1016,5 49 57 0,0
18.07.2017 10:00:00 24,9 16,9 24,7 21,9 18,7 8 5 16 9 OZO 1017,1 28 40 0,0
18.07.2017 09:00:00 22,6 16,6 24,3 22,0 18,7 10 5 20 11 O 1017,7 31 60 0,0
18.07.2017 08:00:00 20,5 16,5 20,4 22,2 18,7 12 6 21 12 NO 1018,0 19 60 0,0
18.07.2017 07:00:00 18,5 15,9 15,5 22,3 18,7 8 4 11 6 NO 1018,1 19 41 0,0
18.07.2017 06:00:00 17,3 15,1 14,7 22,4 18,7 4 2 11 6 ONO 1018,3 20 0 0,0
18.07.2017 05:00:00 17,4 14,9 15,2 22,6 18,7 4 2 11 6 ONO 1018,4 26 0 0,0
18.07.2017 04:00:00 18,0 15,3 15,2 22,7 18,7 3 1 11 6 O 1018,6 31 0 0,0
18.07.2017 03:00:00 18,1 15,0 15,9 22,9 18,7 5 3 9 5 NO 1018,9 39 0 0,0
18.07.2017 02:00:00 19,5 15,4 17,2 23,0 18,7 6 3 15 8 NO 1018,8 56 0 0,0
18.07.2017 01:00:00 20,7 15,5 18,9 23,1 18,7 9 5 18 10 NNO 1018,8 60 0 0,0
18.07.2017 00:00:00 21,8 14,7 19,0 23,2 18,7 11 6 16 9 NNO 1018,7 60 0 0,0
17.07.2017 23:00:00 21,9 14,3 19,5 23,2 18,7 13 7 16 8 NO 1018,6 60 0 0,0
17.07.2017 22:00:00 24,4 14,2 21,7 23,2 18,7 11 6 14 8 NNO 1018,2 60 0 0,0
17.07.2017 21:00:00 26,3 14,4 25,5 23,1 18,7 11 6 21 11 ONO 1017,7 60 40 0,0
17.07.2017 20:00:00 28,4 13,9 29,3 22,9 18,7 14 7 22 12 NNO 1017,4 60 55 0,0
17.07.2017 19:00:00 28,8 12,7 30,2 22,7 18,7 8 5 18 10 NO 1017,5 60 5 0,0
17.07.2017 18:00:00 30,8 12,7 33,5 22,5 18,7 10 5 23 12 NNO 1017,6 60 58 0,0
17.07.2017 17:00:00 30,0 11,5 30,5 22,2 18,7 6 3 20 11 N 1018,2 60 48 0,0
17.07.2017 16:00:00 28,5 12,8 30,2 21,9 18,7 12 6 21 12 NW 1018,8 60 41 0,0
17.07.2017 15:00:00 28,4 12,7 30,2 21,6 18,7 6 4 23 12 N 1019,3 60 40 0,0
17.07.2017 14:00:00 28,4 14,2 29,4 21,4 18,7 9 5 35 19 NNW 1019,8 60 46 0,0
17.07.2017 13:00:00 28,1 14,7 32,3 21,3 18,7 8 4 21 11 NNO 1020,1 58 58 0,0
17.07.2017 12:00:00 26,8 14,9 26,9 21,2 18,7 8 4 18 10 N 1020,4 58 44 0,0
17.07.2017 11:00:00 25,0 15,3 26,6 21,2 18,7 4 2 13 7 NW 1021,0 60 46 0,0
17.07.2017 10:00:00 24,6 15,5 29,5 21,2 18,7 4 2 9 5 WZW 1021,4 53 60 0,0
17.07.2017 09:00:00 22,5 16,3 24,6 21,3 18,7 3 1 8 4 NNO 1021,8 24 60 0,0
17.07.2017 08:00:00 19,3 15,8 19,4 21,4 18,7 2 1 4 2 O 1021,9 27 60 0,0

tt = temperatuur
td = dauwpunt
tt 5cm = temperatuur 5cm
tt -20cm = temperatuur -20cm
tt -100cm = temperatuur -100cm
ff = windsnelheid
fx = windstoten
dd = windrichting
ppp = luchtdruk
vv = zicht
sd = Zonneschijnduur
rr = neerslag

Weerstations in de omgeving